Weather History for Nagpur Sonegaon, India

Change the Weather History Date:

Thursday, September 26, 2013

  Actual Average Record
Temperature  
Mean Temperature 82 °F -  
Max Temperature 91 °F 91 °F - ()
Min Temperature 74 °F 69 °F - ()
Cooling Degree Days 18    
Growing Degree Days 32 (Base 50)    
Moisture  
Dew Point 75 °F    
Average Humidity 83    
Maximum Humidity 94    
Minimum Humidity 53    
Precipitation  
Precipitation 0.00 in 0.11 in - ()
Sea Level Pressure  
Sea Level Pressure 29.80 in    
Wind  
Wind Speed 2 mph ()    
Max Wind Speed 9 mph    
Max Gust Speed -    
Visibility 3.0 miles    
Events      
T = Trace of Precipitation, MM = Missing Value Source: Averaged Metar Reports

Daily Weather History Graph

Daily Weather History Graph

Search for Another Location

Airport:

Trip Planner

Search our weather history database for the weather conditions in past years. The results will help you decide how hot, cold, wet, or windy it might be!

Date:

Astronomy

Sep. 26, 2013 Rise Set
Actual Time 6:03 AM IST 6:06 PM IST
Civil Twilight 5:41 AM IST 6:28 PM IST
Nautical Twilight 5:15 AM IST 6:54 PM IST
Astronomical Twilight 4:49 AM IST 7:20 PM IST
Moon 11:17 PM IST (9/26) 11:56 AM IST (9/26)
Length of Visible Light 12h 47m
Length of Day
12h 02m
Waning Gibbous, 58% of the Moon is Illuminated
Sep 26
Waning Gibbous
Sep 27
Last Quarter
Oct 5
New
Oct 12
First Quarter
Oct 19
Full

Hourly Weather History & Observations

Time (IST) Temp. Heat Index Dew Point Humidity Pressure Visibility Wind Dir Wind Speed Gust Speed Precip Events Conditions
12:10 AM 77.0 °F - 75.2 °F 94% 29.80 in 3.1 mi Calm Calm - N/A   Haze
1:10 AM 77.0 °F - 75.2 °F 94% 29.80 in 3.1 mi Calm Calm - N/A   Haze
2:30 AM 76 °F - 74 °F 93% 29.75 in 2 mi Calm Calm - -   Haze
3:10 AM 75.2 °F - 73.4 °F 94% 29.80 in 3.1 mi Calm Calm - N/A   Haze
4:10 AM 75.2 °F - 73.4 °F 94% 29.77 in 3.1 mi Calm Calm - N/A   Haze
5:10 AM 75.2 °F - 73.4 °F 94% 29.77 in 2.5 mi WSW 2.3 mph - N/A   Haze
5:30 AM 76 °F - 74 °F 93% 29.76 in 1 mi SW 2.3 mph - -   Haze
5:40 AM 75.2 °F - 73.4 °F 94% 29.80 in 2.5 mi SSW 2.3 mph - N/A   Haze
6:10 AM 75.2 °F - 73.4 °F 94% 29.80 in 1.6 mi Calm Calm - N/A   Haze
6:40 AM 75.2 °F - 73.4 °F 94% 29.80 in 1.6 mi WSW 2.3 mph - N/A   Haze
7:10 AM 75.2 °F - 73.4 °F 94% 29.80 in 1.9 mi SW 3.5 mph - N/A   Haze
7:40 AM 77.0 °F - 73.4 °F 89% 29.83 in 2.5 mi SW 4.6 mph - N/A   Haze
8:10 AM 77.0 °F - 75.2 °F 94% 29.83 in 3.1 mi SW 4.6 mph - N/A   Haze
8:30 AM 80 °F - 76 °F 82% 29.81 in 2 mi SW 4.6 mph - -   Clear
8:40 AM 80.6 °F 86.2 °F 75.2 °F 84% 29.86 in 3.7 mi SW 4.6 mph - N/A   Haze
9:10 AM 80.6 °F 86.2 °F 75.2 °F 84% 29.86 in 3.7 mi SSW 4.6 mph - N/A   Scattered Clouds
9:40 AM 82.4 °F 89.5 °F 75.2 °F 79% 29.86 in 5.0 mi SW 4.6 mph - N/A   Scattered Clouds
10:10 AM 82.4 °F 90.9 °F 77.0 °F 84% 29.86 in 5.0 mi SW 5.8 mph - N/A   Scattered Clouds
11:10 AM 84.2 °F 94.1 °F 77.0 °F 79% 29.86 in 5.0 mi SSW 4.6 mph - N/A   Mostly Cloudy
11:30 AM 90 °F - 75 °F 53% 29.78 in 2 mi SW 5.8 mph - -   Partly Cloudy
12:10 PM 91.4 °F 102.5 °F 75.2 °F 59% 29.83 in 5.0 mi WSW 5.8 mph - N/A   Mostly Cloudy
1:10 PM 91.4 °F 102.5 °F 75.2 °F 59% 29.80 in 3.7 mi WSW 4.6 mph - N/A   Mostly Cloudy
1:40 PM 89.6 °F 99.8 °F 75.2 °F 62% 29.80 in 3.7 mi West 6.9 mph - N/A   Partly Cloudy
2:10 PM 89.6 °F 99.8 °F 75.2 °F 62% 29.77 in 3.7 mi WNW 9.2 mph - N/A   Partly Cloudy
2:30 PM 86 °F - 75 °F 63% 29.73 in 2 mi West 9.2 mph - -   Mostly Cloudy
2:40 PM 86.0 °F 95.1 °F 75.2 °F 70% 29.77 in 3.7 mi West 9.2 mph - N/A   Partly Cloudy
3:10 PM 86.0 °F 95.1 °F 75.2 °F 70% 29.77 in 3.7 mi West 6.9 mph - N/A   Partly Cloudy
3:40 PM 86.0 °F 95.1 °F 75.2 °F 70% 29.77 in 3.7 mi WNW 4.6 mph - N/A   Partly Cloudy
4:10 PM 86.0 °F 95.1 °F 75.2 °F 70% 29.77 in 3.7 mi WNW 3.5 mph - N/A   Scattered Clouds
5:10 PM 84.2 °F 92.3 °F 75.2 °F 74% 29.77 in 3.1 mi West 3.5 mph - N/A   Haze
5:40 PM 82.4 °F 89.5 °F 75.2 °F 79% 29.77 in 3.1 mi NW 3.5 mph - N/A   Haze
6:10 PM 82.4 °F 89.5 °F 75.2 °F 79% 29.77 in 3.1 mi NW 2.3 mph - N/A   Haze
6:40 PM 82.4 °F 89.5 °F 75.2 °F 79% 29.80 in 3.1 mi Calm Calm - N/A   Haze
7:10 PM 82.4 °F 89.5 °F 75.2 °F 79% 29.80 in 3.1 mi Calm Calm - N/A   Haze
7:40 PM 80.6 °F 86.2 °F 75.2 °F 84% 29.80 in 3.1 mi Calm Calm - N/A   Haze
8:10 PM 78.8 °F - 75.2 °F 89% 29.80 in 3.1 mi Calm Calm - N/A   Haze
8:30 PM 79 °F - 76 °F 88% 29.80 in 1 mi Calm Calm - -   Haze
8:40 PM 78.8 °F - 75.2 °F 89% 29.83 in 3.1 mi Calm Calm - N/A   Haze
9:10 PM 78.8 °F - 75.2 °F 89% 29.83 in 3.1 mi Calm Calm - N/A   Haze
9:40 PM 77.0 °F - 75.2 °F 94% 29.83 in 3.1 mi SE 2.3 mph - N/A   Haze
10:10 PM 77.0 °F - 75.2 °F 94% 29.86 in 3.1 mi Calm Calm - N/A   Haze
10:40 PM 77.0 °F - 75.2 °F 94% 29.86 in 3.1 mi Calm Calm - N/A   Haze
11:10 PM 77.0 °F - 75.2 °F 94% 29.83 in 3.1 mi Calm Calm - N/A   Haze
11:30 PM 78 °F - 75 °F 89% 29.80 in 1 mi Calm Calm - -   Haze